Weather History for KMLP - October, 2012

Change the Weather History Date:

Monday, October 8, 2012

  Actual Average (K3TH) Record (K3TH)
Temperature  
Mean Temperature 45 °F -  
Max Temperature 51 °F 59 °F 77 °F (1996)
Min Temperature 39 °F 39 °F 32 °F (1997)
Degree Days  
Heating Degree Days 20    
Moisture  
Dew Point 24 °F    
Average Humidity 46    
Maximum Humidity 55    
Minimum Humidity 38    
Precipitation  
Precipitation 0.00 in - - ()
Sea Level Pressure  
Sea Level Pressure 29.84 in    
Wind  
Wind Speed 4 mph (NW)    
Max Wind Speed 9 mph    
Max Gust Speed -    
Visibility 10 miles    
Events      
Averages and records for this station are not official NWS values.
T = Trace of Precipitation, MM = Missing Value Source: NWS Daily Summary

Daily Weather History Graph

Daily Weather History Graph

Search for Another Location

Airport or City:

Trip Planner

Search our weather history database for the weather conditions in past years. The results will help you decide how hot, cold, wet, or windy it might be!

Date:

Astronomy

Oct. 08, 2012 Rise Set
Actual Time 6:52 AM PDT 6:07 PM PDT
Civil Twilight 6:21 AM PDT 6:37 PM PDT
Nautical Twilight 5:45 AM PDT 7:13 PM PDT
Astronomical Twilight 5:10 AM PDT 7:48 PM PDT
Moon No Moon Rise 2:24 PM PDT (10/8)
Length of Visible Light 12h 16m
Length of Day
11h 14m
Last Quarter, 45% of the Moon is Illuminated
Oct 8
Last Quarter
Oct 15
New
Oct 21
First Quarter
Oct 29
Full
Nov 6
Last Quarter

Hourly Weather History & Observations

Time (PDT) Temp. Windchill Dew Point Humidity Pressure Visibility Wind Dir Wind Speed Gust Speed Precip Events Conditions
1:53 AM 42.1 °F - 23.0 °F 47% 29.85 in 10.0 mi Calm Calm - N/A   Clear
2:53 AM 41.0 °F - 23.0 °F 49% 29.85 in 10.0 mi Calm Calm - N/A   Clear
3:53 AM 39.9 °F 36.7 °F 25.0 °F 55% 29.85 in 10.0 mi WNW 4.6 mph - N/A   Clear
4:53 AM 39.9 °F 36.7 °F 24.1 °F 53% 29.84 in 10.0 mi NW 4.6 mph - N/A   Clear
6:53 AM 39.0 °F 34.8 °F 23.0 °F 53% 29.84 in 10.0 mi NW 5.8 mph - N/A   Clear
7:53 AM 42.1 °F 39.2 °F 23.0 °F 47% 29.87 in 10.0 mi WNW 4.6 mph - N/A   Clear
8:53 AM 43.0 °F 39.5 °F 23.0 °F 45% 29.88 in 10.0 mi Variable 5.8 mph - N/A   Clear
9:53 AM 45.0 °F 41.2 °F 21.9 °F 40% 29.88 in 10.0 mi NW 6.9 mph - N/A   Partly Cloudy
10:53 AM 46.0 °F 41.9 °F 24.1 °F 42% 29.83 in 10.0 mi NW 8.1 mph - N/A   Overcast
11:53 AM 48.9 °F - 24.1 °F 38% 29.83 in 10.0 mi Variable 6.9 mph - N/A   Overcast
12:53 PM 51.1 °F - 26.1 °F 38% 29.81 in 10.0 mi Variable 5.8 mph - N/A   Mostly Cloudy
1:53 PM 48.0 °F - 25.0 °F 41% 29.82 in 10.0 mi NNW 8.1 mph - N/A   Overcast
2:53 PM 50.0 °F - 26.1 °F 39% 29.80 in 10.0 mi Variable 3.5 mph - N/A   Overcast
3:53 PM 48.9 °F - 26.1 °F 41% 29.81 in 10.0 mi Variable 4.6 mph - N/A   Overcast
4:53 PM 48.9 °F - 26.1 °F 41% 29.81 in 10.0 mi NNW 5.8 mph - N/A   Overcast
5:53 PM 46.0 °F 41.4 °F 26.1 °F 46% 29.86 in 10.0 mi NW 9.2 mph - N/A   Partly Cloudy
6:53 PM 44.1 °F 41.5 °F 26.1 °F 49% 29.84 in 10.0 mi NNW 4.6 mph - N/A   Clear
7:53 PM 43.0 °F 40.3 °F 25.0 °F 49% 29.88 in 10.0 mi NW 4.6 mph - N/A   Clear
8:53 PM 44.1 °F - 25.0 °F 47% 29.85 in 10.0 mi Calm Calm - N/A   Overcast
9:53 PM 43.0 °F 40.3 °F 25.0 °F 49% 29.85 in 10.0 mi NNW 4.6 mph - N/A   Scattered Clouds
10:53 PM 42.1 °F 39.2 °F 24.1 °F 49% 29.86 in 10.0 mi NNW 4.6 mph - N/A   Partly Cloudy
11:53 PM 42.1 °F 38.4 °F 21.9 °F 45% 29.85 in 10.0 mi NNW 5.8 mph - N/A   Clear